Regional Weather Roundup
Issued by NWS Little Rock, AR

Home | Current Version | Previous Version | Graphics & Text | Print | Product List | Glossary On
Versions: 1 2 3 4 5 6 7 8 9 10 11 12 13 14 15 16 17 18 19 20 21 22 23 24 25 26 27 28 29 30 31 32 33 34 35 36 37 38 39 40 41 42 43 44 45 46 47 48 49 50
000
ASUS44 KLZK 270705
RWRLZK

WEATHER ROUNDUP FOR ARKANSAS
NATIONAL WEATHER SERVICE LITTLE ROCK AR
200 AM CDT MON APR 27 2015

NOTE: "FAIR" INDICATES FEW OR NO CLOUDS BELOW 12,000 FEET WITH NO
SIGNIFICANT WEATHER AND/OR OBSTRUCTIONS TO VISIBILITY.

ARZ001-003-010-029-270800-
NORTHWEST ARKANSAS

CITY           SKY/WX    TMP DP  RH WIND       PRES   REMARKS
FAYETTEVILLE   CLOUDY    54  47  77 E8        29.90S
FORT SMITH     CLOUDY    58  48  69 E9        29.92R
HARRISON       CLOUDY    49  47  93 SE3       29.96R
BENTONVILLE    CLOUDY   N/A N/A N/A E10       29.91S
ROGERS         CLOUDY    52  46  80 E10       29.92R
SILOAM SPGS    CLOUDY   N/A N/A N/A E8        29.91S
HIGHFILL       CLOUDY    54  45  71 E12       29.90R
$$

ARZ004-005-016-270800-
NORTH CENTRAL ARKANSAS

CITY           SKY/WX    TMP DP  RH WIND       PRES   REMARKS
BATESVILLE     CLOUDY    52  43  71 NE7       29.94S
FLIPPIN        CLOUDY    50  45  81 NE3       29.95R
MTN HOME       CLOUDY    49  43  80 E5        29.95S
$$

ARZ040-041-270800-
WEST CENTRAL ARKANSAS

CITY           SKY/WX    TMP DP  RH WIND       PRES   REMARKS
MENA           CLOUDY    57  54  88 E9        29.92R
MOUNT IDA      CLOUDY    57  48  72 VRB3      29.88S
$$

ARZ009-017-025-026-028-270800-
NORTHEAST ARKANSAS

CITY           SKY/WX    TMP DP  RH WIND       PRES   REMARKS
CORNING          N/A     50  41  71 NE13      29.96F
JONESBORO      MOCLDY    52  41  66 NE12      29.93S
NEWPORT        CLOUDY    53  46  77 NE13      29.94R
WALNUT RIDGE   PTCLDY    52  39  62 NE12G17   29.95R
BLYTHEVILLE    CLEAR     48  44  86 NE8       29.94S
$$

ARZ022-023-033-042-044-270800-
CENTRAL ARKANSAS

CITY           SKY/WX    TMP DP  RH WIND       PRES   REMARKS
LITTLE ROCK    CLOUDY    57  48  72 NE9       29.91S
N LITTLE ROCK    N/A     54  51  89 NE9       29.91S
SEARCY         CLOUDY    54  49  83 NE7       29.93S
HOT SPRINGS    CLOUDY    57  48  72 NE10      29.88S
RUSSELLVILLE   CLOUDY    56  48  74 VRB5      29.91S
CLINTON        FAIR      52  50  93 CALM      29.94S
$$

ARZ036-270800-
EAST ARKANSAS

CITY           SKY/WX    TMP DP  RH WIND       PRES   REMARKS
WEST MEMPHIS   CLOUDY    53  50  89 NE8       29.89S
$$

ARZ050-053-066-070-073-270800-
SOUTHWEST ARKANSAS

CITY           SKY/WX    TMP DP  RH WIND       PRES   REMARKS
ARKADELPHIA    FAIR      58  52  80 NE7       29.90S
CAMDEN         LGT RAIN  55  50  82 N6        29.88R
TEXARKANA      LGT RAIN  58  55  90 NE13G23   29.83R
EL DORADO      LGT RAIN  59  53  80 NE12      29.85R
DE QUEEN       LGT RAIN  58  56  93 E14       29.84R
$$

ARZ056-057-069-270800-
SOUTHEAST ARKANSAS

CITY           SKY/WX    TMP DP  RH WIND       PRES   REMARKS
PINE BLUFF     CLOUDY    57  50  77 NE12      29.89S
STUTTGART      CLOUDY    57  48  72 E8        29.91S
MONTICELLO     CLOUDY    57  52  83 NE8       29.86S

$$




USA.gov is the U.S. government's official web portal to all federal, state and local government web resources and services.